YU4PTT-8 Weather Reports


time (UTC)temp
F
wind
direction
speed
knots
gust
knots
rain 1hr
in
rain 24hr
in
rain mn
in
humidity
%
barometer
mb
20260507205022 53 112 0.0 0.0 0.00 0.00 0.08 82 1005.8
20260507201052 53 158 0.0 0.0 0.00 0.00 0.08 84 1005.5
20260507193052 54 248 0.0 0.0 0.00 0.00 0.08 82 1005.4
20260507190023 54 248 0.0 0.0 0.00 0.00 0.08 79 1005.2
20260507182122 55 248 0.0 0.0 0.00 0.00 0.08 78 1005.2
20260507175052 55 248 0.0 0.0 0.00 0.00 0.08 78 1005.3
20260507172022 56 248 0.0 0.0 0.00 0.00 0.08 80 1005.0
20260507164052 56 248 0.0 0.0 0.00 0.00 0.08 79 1004.8
20260507161022 58 248 0.0 0.0 0.00 0.00 0.08 76 1004.9
20260507154022 58 248 0.0 0.0 0.00 0.00 0.08 75 1004.8
20260507150122 60 248 0.0 0.0 0.00 0.00 0.08 70 1005.0
20260507143052 62 292 0.0 0.0 0.00 0.00 0.08 65 1004.8
20260507135052 61 90 0.0 0.0 0.00 0.00 0.08 67 1004.7
20260507132022 58 180 0.9 0.9 0.00 0.00 0.08 68 1005.0
20260507124053 60 158 4.3 4.3 0.00 0.00 0.08 62 1005.2
20260507121052 59 202 0.0 0.0 0.00 0.00 0.08 63 1005.3
20260507113052 59 202 0.9 0.9 0.00 0.00 0.08 61 1005.3
20260507110022 58 158 0.9 0.9 0.00 0.00 0.08 62 1004.9
20260507103022 57 90 0.0 0.0 0.00 0.00 0.08 67 1005.5
20260507095052 55 45 1.7 1.7 0.00 0.00 0.08 67 1005.2
20260507091052 53 158 0.0 0.0 0.00 0.00 0.08 64 1005.1
20260507084027 52 158 1.7 1.7 0.00 0.00 0.08 64 1005.0
20260507081024 51 112 2.6 2.6 0.00 0.00 0.08 65 1005.1
20260507022322 49 225 1.7 1.7 0.02 0.00 0.03 88 1004.3
20260507014322 52 158 0.9 0.9 0.00 0.00 0.00 75 1004.2
20260507010322 54 158 0.0 0.0 0.00 0.00 0.00 68 1003.8
20260507002352 54 158 0.0 0.0 0.00 0.00 0.00 70 1003.8
20260506235322 54 68 0.0 0.0 0.00 0.00 0.00 70 1003.9
20260506231322 55 68 0.9 0.9 0.00 0.00 0.00 68 1003.6
20260506223322 54 158 3.5 3.5 0.00 0.00 0.00 68 1003.8
20260506215322 56 90 2.6 2.6 0.00 0.00 0.00 67 1002.9
20260506211322 56 248 1.7 1.7 0.00 0.00 0.00 66 1003.0